Simultaneous Nadir Overpasses (SNOs) Predictions

Prediction of SNOs between AQUA and METOP-B Satellite Orbit:

Table of predicted SNOs for the next 14.0 days since TLE Epoch: 8/24/2024
Index Date (AQUA) Time (AQUA) Lat,Lon (AQUA) SZA (AQUA ) Date (METOP-B) Time (METOP-B) Lat,Lon (METOP-B) SZA (METOP-B ) Distance(km) Time Diff (sec)
1 08/26/2024 08:56:25 75.62, 45.19 65.36 08/26/2024 08:55:20 75.58, 41.99 65.37 88.63 65
2 08/26/2024 09:45:57 -76.18,-148.89 114.05 08/26/2024 09:45:49 -76.17,-148.77 114.06 3.50 8
3 08/26/2024 10:35:20 76.23, 18.61 66.02 08/26/2024 10:36:28 76.22, 18.73 66.00 3.31 68
4 08/29/2024 00:16:48 -76.15, -6.44 113.17 08/29/2024 00:16:07 -76.16, -6.40 113.15 1.97 41
5 08/29/2024 01:06:11 76.20, 161.05 66.90 08/29/2024 01:06:46 76.21, 161.09 66.91 1.50 35
6 08/31/2024 14:47:38 -76.12, 135.98 112.26 08/31/2024 14:46:26 -76.14, 135.92 112.24 2.68 72
7 08/31/2024 15:37:01 76.17, -56.53 67.81 08/31/2024 15:37:05 76.18, -56.59 67.82 1.92 4
8 08/31/2024 16:26:30 -76.58, 109.77 111.76 08/31/2024 16:27:37 -76.62, 112.30 111.74 65.56 67
9 09/03/2024 06:07:49 76.16, 85.86 68.74 09/03/2024 06:07:23 76.19, 85.83 68.78 3.22 26
10 09/03/2024 06:57:11 -76.23,-106.71 111.17 09/03/2024 06:58:04 -76.22,-106.73 111.19 1.42 53
11 09/05/2024 20:38:35 76.16,-131.78 69.70 09/05/2024 20:37:41 76.18,-131.79 69.73 2.54 54
12 09/05/2024 21:27:57 -76.23, 35.66 110.21 09/05/2024 21:28:22 -76.22, 35.65 110.23 1.68 25



Historial Predications of SNOs between AQUA and METOP-B
